Home   Weather   Plettenberg   Past weeks

Flag for Germany Past Weather in Plettenberg, North Rhine-Westphalia, Germany — Yesterday and Last 2 Weeks

Now
43 °F

Clear.


Feels Like: 35 °F
Forecast: 37 / 47 °F
Wind: 15 mph from Southwest

Location: Dortmund / Wickede

Current Time: Feb 25, 2017 at 9:51:55 pm

Latest Report: Feb 25, 2017 at 9:20 pm


Visibility: 10 mi

Pressure: 29.95 "Hg

Humidity: 57%

Dew Point: 28 °F

Location of PlettenbergLocation

Past Weather in Plettenberg — Graph

°F

Plettenberg Temperature Yesterday

Maximum temperature yesterday: 45 °F (at 3:20 pm)
Minimum temperature yesterday: 36 °F (at 6:50 am)
Average temperature yesterday: 39 °F

High & Low Weather Summary for the Past Weeks

 TemperatureHumidityPressure
High61 °F (Feb 15, 2:50 pm)94% (Feb 20, 9:50 pm)30.51 "Hg (Feb 20, 9:50 pm)
Low28 °F (Feb 13, 5:20 am)29% (Feb 15, 2:50 pm)29.18 "Hg (Feb 23, 4:56 pm)
Average42 °F73%30.10 "Hg
* Reported Feb 10 8:20 pm — Feb 25 8:20 pm, Plettenberg, Weather by CustomWeather, © 2017

Note: Actual official high and low records may vary slightly from our data, if they occured in-between our weather recording intervals... More about our weather records

Advertising

Plettenberg Weather History for the Previous 24 Hours

Scroll right to see more
 ConditionsComfort  
Time TempWeatherWind HumidityBarometerVisibility
8:20 pm
Sat, Feb 25
43 °FPassing clouds.15 mph57%29.95 "HgN/A
7:50 pm43 °FClear.16 mph57%29.98 "Hg10 mi
7:20 pm43 °FClear.18 mph53%29.95 "Hg10 mi
6:50 pm43 °FClear.16 mph57%29.95 "Hg10 mi
6:20 pm43 °FClear.16 mph57%29.98 "Hg10 mi
5:50 pm45 °FPassing clouds.16 mph53%29.98 "HgN/A
5:20 pm43 °FSunny.16 mph57%29.98 "Hg10 mi
4:50 pm45 °FSunny.13 mph53%30.01 "Hg10 mi
4:20 pm45 °FSunny.12 mph53%30.01 "Hg10 mi
3:50 pm45 °FSunny.13 mph53%30.01 "Hg10 mi
3:20 pm45 °FPassing clouds.16 mph53%30.01 "HgN/A
2:50 pm45 °FSunny.17 mph53%30.04 "Hg10 mi
2:20 pm45 °FSunny.18 mph53%30.04 "Hg10 mi
1:50 pm45 °FSunny.15 mph57%30.07 "Hg10 mi
1:20 pm45 °FPassing clouds.15 mph57%30.07 "HgN/A
12:50 pm43 °FScattered clouds.17 mph61%30.07 "HgN/A
12:20 pm43 °FSunny.17 mph61%30.09 "Hg10 mi
11:50 am43 °FPassing clouds.15 mph66%30.09 "HgN/A
11:20 am41 °FPassing clouds.13 mph66%30.09 "HgN/A
10:50 am41 °FSunny.14 mph70%30.12 "Hg10 mi
10:20 am39 °FSunny.13 mph70%30.12 "Hg10 mi
9:50 am39 °FSunny.14 mph75%30.12 "Hg10 mi
9:20 am37 °FSunny.13 mph81%30.12 "Hg10 mi
8:50 am36 °FSunny.13 mph81%30.12 "Hg10 mi
8:20 am34 °FSunny.12 mph87%30.12 "Hg10 mi
7:50 am34 °FScattered clouds.10 mph87%30.12 "Hg5 mi
7:20 am34 °FPassing clouds.10 mph81%30.12 "Hg5 mi
6:50 am34 °FPassing clouds.10 mph87%30.12 "HgN/A
6:20 am32 °FPassing clouds.10 mph87%30.09 "HgN/A
5:50 am32 °FPassing clouds.12 mph87%30.09 "HgN/A
5:20 am32 °FPassing clouds.10 mph87%30.09 "HgN/A
9:50 pm
Fri, Feb 24
36 °FPassing clouds.5 mph75%30.07 "HgN/A
9:20 pm36 °FClear.3 mph70%30.07 "Hg10 mi
Weather by CustomWeather, © 2017

See weather overviewHow to use our weather pages